Location: *
(50.8160°S, 176.0219°W)
Time: 23:43:50
(UTC+00:00)

USA 229 DEB - Pass Details

Date: 19 May 2026
Orbit: 844 x 1364 km, 63.4° (Epoch: 10 January)

Event Time Altitude Azimuth Distance (km) Brightness Sun altitude
Exits shadow 18:30:09 - 237° (WSW) 2,904 5.3 -7.8°
Reaches altitude 10° 18:30:33 10° 239° (WSW) 2,780 5.2 -7.8°
Maximum altitude 18:35:44 26° 293° (WNW) 1,735 4.5 -7.0°
Drops below altitude 10° 18:40:31 10° 348° (NNW) 2,540 5.9 -6.3°
Sets 18:43:16 0° 360° (N) 3,433 6.7 -5.9°
